owner,sensor,date,latitude,longitude,vertical_datum,wind_speed,wind_to_direction,wind_speed_of_gust,qcFlag 
FIT,ioos:station:wmo:SIPF1:1,2015-11-01T00:00:00Z,27.8620,-80.4450,1.0,5.7,88.0,99.0,'11111222,11111222,11144222' 
FIT,ioos:station:wmo:SIPF1:1,2015-11-01T00:15:00Z,27.8620,-80.4450,1.0,5.7,92.0,99.0,'11111222,11111222,11144222' 
FIT,ioos:station:wmo:SIPF1:1,2015-11-01T00:30:00Z,27.8620,-80.4450,1.0,5.5,97.0,99.0,'11111222,11111222,11144222' 
FIT,ioos:station:wmo:SIPF1:1,2015-11-01T00:45:00Z,27.8620,-80.4450,1.0,6.1,98.0,99.0,'11111222,11111222,11144222' 
FIT,ioos:station:wmo:SIPF1:1,2015-11-01T01:00:00Z,27.8620,-80.4450,1.0,6.1,97.0,99.0,'11111222,11111222,11144222' 
FIT,ioos:station:wmo:SIPF1:1,2015-11-01T01:15:00Z,27.8620,-80.4450,1.0,6.2,91.0,99.0,'11111222,11111222,11144222' 
FIT,ioos:station:wmo:SIPF1:1,2015-11-01T01:30:00Z,27.8620,-80.4450,1.0,5.9,90.0,99.0,'11111222,11111222,11144222' 
FIT,ioos:station:wmo:SIPF1:1,2015-11-01T01:45:00Z,27.8620,-80.4450,1.0,6.3,91.0,99.0,'11111222,11111222,11144222' 
FIT,ioos:station:wmo:SIPF1:1,2015-11-01T02:00:00Z,27.8620,-80.4450,1.0,6.0,86.0,99.0,'11111222,11111222,11144222' 
FIT,ioos:station:wmo:SIPF1:1,2015-11-01T02:15:00Z,27.8620,-80.4450,1.0,6.1,92.0,99.0,'11111222,11111222,11144222' 
FIT,ioos:station:wmo:SIPF1:1,2015-11-01T02:30:00Z,27.8620,-80.4450,1.0,6.0,99.0,99.0,'11111222,11111222,11144222' 
FIT,ioos:station:wmo:SIPF1:1,2015-11-01T02:45:00Z,27.8620,-80.4450,1.0,5.9,107.0,99.0,'11111222,11111222,11144222' 
FIT,ioos:station:wmo:SIPF1:1,2015-11-01T03:00:00Z,27.8620,-80.4450,1.0,5.9,107.0,99.0,'11111222,11111222,11144222' 
FIT,ioos:station:wmo:SIPF1:1,2015-11-01T03:15:00Z,27.8620,-80.4450,1.0,6.1,101.0,99.0,'11111222,11111222,11144222' 
FIT,ioos:station:wmo:SIPF1:1,2015-11-01T03:30:00Z,27.8620,-80.4450,1.0,6.6,105.0,99.0,'11111222,11111222,11144222' 
FIT,ioos:station:wmo:SIPF1:1,2015-11-01T03:45:00Z,27.8620,-80.4450,1.0,6.7,108.0,99.0,'11111222,11111222,11144222' 
FIT,ioos:station:wmo:SIPF1:1,2015-11-01T04:00:00Z,27.8620,-80.4450,1.0,6.5,114.0,99.0,'11111222,11111222,11144222' 
FIT,ioos:station:wmo:SIPF1:1,2015-11-01T04:15:00Z,27.8620,-80.4450,1.0,6.2,126.0,99.0,'11111222,11111222,11144222' 
FIT,ioos:station:wmo:SIPF1:1,2015-11-01T04:30:00Z,27.8620,-80.4450,1.0,6.1,125.0,99.0,'11111222,11111222,11144222' 
FIT,ioos:station:wmo:SIPF1:1,2015-11-01T04:45:00Z,27.8620,-80.4450,1.0,6.2,125.0,99.0,'11111222,11111222,11144222' 
FIT,ioos:station:wmo:SIPF1:1,2015-11-01T05:00:00Z,27.8620,-80.4450,1.0,6.2,128.0,99.0,'11111222,11111222,11144222' 
FIT,ioos:station:wmo:SIPF1:1,2015-11-01T05:15:00Z,27.8620,-80.4450,1.0,6.0,126.0,99.0,'11111222,11111222,11144222' 
FIT,ioos:station:wmo:SIPF1:1,2015-11-01T05:30:00Z,27.8620,-80.4450,1.0,5.7,129.0,99.0,'11111222,11111222,11144222' 
FIT,ioos:station:wmo:SIPF1:1,2015-11-01T05:45:00Z,27.8620,-80.4450,1.0,5.2,135.0,99.0,'11111222,11111222,11144222' 
FIT,ioos:station:wmo:SIPF1:1,2015-11-01T06:00:00Z,27.8620,-80.4450,1.0,5.1,135.0,99.0,'11111222,11111222,11144222' 
FIT,ioos:station:wmo:SIPF1:1,2015-11-01T06:15:00Z,27.8620,-80.4450,1.0,5.5,138.0,99.0,'11111222,11111222,11144222' 
FIT,ioos:station:wmo:SIPF1:1,2015-11-01T06:30:00Z,27.8620,-80.4450,1.0,5.6,143.0,99.0,'11111222,11111222,11144222' 
FIT,ioos:station:wmo:SIPF1:1,2015-11-01T06:45:00Z,27.8620,-80.4450,1.0,5.3,145.0,99.0,'11111222,11111222,11144222' 
FIT,ioos:station:wmo:SIPF1:1,2015-11-01T07:00:00Z,27.8620,-80.4450,1.0,4.9,142.0,99.0,'11111222,11111222,11144222' 
FIT,ioos:station:wmo:SIPF1:1,2015-11-01T07:15:00Z,27.8620,-80.4450,1.0,4.3,140.0,99.0,'11111222,11111222,11144222' 
FIT,ioos:station:wmo:SIPF1:1,2015-11-01T07:30:00Z,27.8620,-80.4450,1.0,3.9,139.0,99.0,'11111222,11111222,11144222' 
FIT,ioos:station:wmo:SIPF1:1,2015-11-01T07:45:00Z,27.8620,-80.4450,1.0,4.1,145.0,99.0,'11111222,11111222,11144222' 
FIT,ioos:station:wmo:SIPF1:1,2015-11-01T08:00:00Z,27.8620,-80.4450,1.0,3.8,148.0,99.0,'11111222,11111222,11144222' 
FIT,ioos:station:wmo:SIPF1:1,2015-11-01T08:15:00Z,27.8620,-80.4450,1.0,3.3,145.0,99.0,'11111222,11111222,11144222' 
FIT,ioos:station:wmo:SIPF1:1,2015-11-01T08:30:00Z,27.8620,-80.4450,1.0,3.7,139.0,99.0,'11111222,11111222,11144222' 
FIT,ioos:station:wmo:SIPF1:1,2015-11-01T08:45:00Z,27.8620,-80.4450,1.0,3.4,154.0,99.0,'11111222,11111222,11144222' 
FIT,ioos:station:wmo:SIPF1:1,2015-11-01T09:00:00Z,27.8620,-80.4450,1.0,1.5,196.0,99.0,'11111222,11111222,11144222' 
FIT,ioos:station:wmo:SIPF1:1,2015-11-01T09:15:00Z,27.8620,-80.4450,1.0,0.7,202.0,99.0,'11111222,11111222,11144222' 
FIT,ioos:station:wmo:SIPF1:1,2015-11-01T09:30:00Z,27.8620,-80.4450,1.0,1.1,221.0,99.0,'11111222,11111222,11144222' 
FIT,ioos:station:wmo:SIPF1:1,2015-11-01T09:45:00Z,27.8620,-80.4450,1.0,1.3,212.0,99.0,'11111222,11111222,11144222' 
FIT,ioos:station:wmo:SIPF1:1,2015-11-01T10:00:00Z,27.8620,-80.4450,1.0,0.9,211.0,99.0,'11111222,11111222,11144222' 
FIT,ioos:station:wmo:SIPF1:1,2015-11-01T10:15:00Z,27.8620,-80.4450,1.0,1.0,197.0,99.0,'11111222,11111222,11144222' 
FIT,ioos:station:wmo:SIPF1:1,2015-11-01T10:30:00Z,27.8620,-80.4450,1.0,1.0,194.0,99.0,'11111222,11111222,11144222' 
FIT,ioos:station:wmo:SIPF1:1,2015-11-01T10:45:00Z,27.8620,-80.4450,1.0,1.3,186.0,99.0,'11111222,11111222,11144222' 
FIT,ioos:station:wmo:SIPF1:1,2015-11-01T11:00:00Z,27.8620,-80.4450,1.0,1.4,194.0,99.0,'11111222,11111222,11144222' 
FIT,ioos:station:wmo:SIPF1:1,2015-11-01T11:15:00Z,27.8620,-80.4450,1.0,1.2,208.0,99.0,'11111222,11111222,11144222' 
FIT,ioos:station:wmo:SIPF1:1,2015-11-01T11:30:00Z,27.8620,-80.4450,1.0,1.1,201.0,99.0,'11111222,11111222,11144222' 
FIT,ioos:station:wmo:SIPF1:1,2015-11-01T11:45:00Z,27.8620,-80.4450,1.0,1.4,194.0,99.0,'11111222,11111222,11144222' 
FIT,ioos:station:wmo:SIPF1:1,2015-11-01T12:00:00Z,27.8620,-80.4450,1.0,1.9,185.0,99.0,'11111222,11111222,11144222' 
FIT,ioos:station:wmo:SIPF1:1,2015-11-01T12:15:00Z,27.8620,-80.4450,1.0,1.8,182.0,99.0,'11111222,11111222,11144222' 
FIT,ioos:station:wmo:SIPF1:1,2015-11-01T12:30:00Z,27.8620,-80.4450,1.0,1.7,189.0,99.0,'11111222,11111222,11144222' 
FIT,ioos:station:wmo:SIPF1:1,2015-11-01T12:45:00Z,27.8620,-80.4450,1.0,2.0,179.0,99.0,'11111222,11111222,11144222' 
FIT,ioos:station:wmo:SIPF1:1,2015-11-01T13:00:00Z,27.8620,-80.4450,1.0,2.1,175.0,99.0,'11111222,11111222,11144222' 
FIT,ioos:station:wmo:SIPF1:1,2015-11-01T13:15:00Z,27.8620,-80.4450,1.0,2.2,172.0,99.0,'11111222,11111222,11144222' 
FIT,ioos:station:wmo:SIPF1:1,2015-11-01T13:30:00Z,27.8620,-80.4450,1.0,2.0,176.0,99.0,'11111222,11111222,11144222' 
FIT,ioos:station:wmo:SIPF1:1,2015-11-01T13:45:00Z,27.8620,-80.4450,1.0,1.8,177.0,99.0,'11111222,11111222,11144222' 
FIT,ioos:station:wmo:SIPF1:1,2015-11-01T14:00:00Z,27.8620,-80.4450,1.0,2.2,164.0,99.0,'11111222,11111222,11144222' 
FIT,ioos:station:wmo:SIPF1:1,2015-11-01T14:15:00Z,27.8620,-80.4450,1.0,3.3,157.0,99.0,'11111222,11111222,11144222' 
FIT,ioos:station:wmo:SIPF1:1,2015-11-01T14:30:00Z,27.8620,-80.4450,1.0,3.5,153.0,99.0,'11111222,11111222,11144222' 
FIT,ioos:station:wmo:SIPF1:1,2015-11-01T14:45:00Z,27.8620,-80.4450,1.0,3.6,150.0,99.0,'11111222,11111222,11144222' 
FIT,ioos:station:wmo:SIPF1:1,2015-11-01T15:00:00Z,27.8620,-80.4450,1.0,3.8,150.0,99.0,'11111222,11111222,11144222' 
FIT,ioos:station:wmo:SIPF1:1,2015-11-01T15:15:00Z,27.8620,-80.4450,1.0,4.1,151.0,99.0,'11111222,11111222,11144222' 
FIT,ioos:station:wmo:SIPF1:1,2015-11-01T15:30:00Z,27.8620,-80.4450,1.0,4.1,152.0,99.0,'11111222,11111222,11144222' 
FIT,ioos:station:wmo:SIPF1:1,2015-11-01T15:45:00Z,27.8620,-80.4450,1.0,4.2,146.0,99.0,'11111222,11111222,11144222' 
FIT,ioos:station:wmo:SIPF1:1,2015-11-01T16:00:00Z,27.8620,-80.4450,1.0,4.4,139.0,99.0,'11111222,11111222,11144222' 
FIT,ioos:station:wmo:SIPF1:1,2015-11-01T16:15:00Z,27.8620,-80.4450,1.0,4.5,139.0,99.0,'11111222,11111222,11144222' 
FIT,ioos:station:wmo:SIPF1:1,2015-11-01T16:30:00Z,27.8620,-80.4450,1.0,4.7,138.0,99.0,'11111222,11111222,11144222' 
FIT,ioos:station:wmo:SIPF1:1,2015-11-01T16:45:00Z,27.8620,-80.4450,1.0,5.0,135.0,99.0,'11111222,11111222,11144222' 
FIT,ioos:station:wmo:SIPF1:1,2015-11-01T17:00:00Z,27.8620,-80.4450,1.0,4.9,137.0,99.0,'11111222,11111222,11144222' 
FIT,ioos:station:wmo:SIPF1:1,2015-11-01T17:15:00Z,27.8620,-80.4450,1.0,4.7,134.0,99.0,'11111222,11111222,11144222' 
FIT,ioos:station:wmo:SIPF1:1,2015-11-01T17:30:00Z,27.8620,-80.4450,1.0,4.8,130.0,99.0,'11111222,11111222,11144222' 
FIT,ioos:station:wmo:SIPF1:1,2015-11-01T17:45:00Z,27.8620,-80.4450,1.0,5.2,130.0,99.0,'11111222,11111222,11144222' 
FIT,ioos:station:wmo:SIPF1:1,2015-11-01T18:00:00Z,27.8620,-80.4450,1.0,5.0,131.0,99.0,'11111222,11111222,11144222' 
FIT,ioos:station:wmo:SIPF1:1,2015-11-01T18:15:00Z,27.8620,-80.4450,1.0,5.0,133.0,99.0,'11111222,11111222,11144222' 
FIT,ioos:station:wmo:SIPF1:1,2015-11-01T18:30:00Z,27.8620,-80.4450,1.0,5.0,132.0,99.0,'11111222,11111222,11144222' 
FIT,ioos:station:wmo:SIPF1:1,2015-11-01T18:45:00Z,27.8620,-80.4450,1.0,5.3,131.0,99.0,'11111222,11111222,11144222' 
FIT,ioos:station:wmo:SIPF1:1,2015-11-01T19:00:00Z,27.8620,-80.4450,1.0,5.7,130.0,99.0,'11111222,11111222,11144222' 
FIT,ioos:station:wmo:SIPF1:1,2015-11-01T19:15:00Z,27.8620,-80.4450,1.0,5.6,133.0,99.0,'11111222,11111222,11144222' 
FIT,ioos:station:wmo:SIPF1:1,2015-11-01T19:30:00Z,27.8620,-80.4450,1.0,5.2,131.0,99.0,'11111222,11111222,11144222' 
FIT,ioos:station:wmo:SIPF1:1,2015-11-01T19:45:00Z,27.8620,-80.4450,1.0,5.0,132.0,99.0,'11111222,11111222,11144222' 
FIT,ioos:station:wmo:SIPF1:1,2015-11-01T20:00:00Z,27.8620,-80.4450,1.0,5.3,135.0,99.0,'11111222,11111222,11144222' 
FIT,ioos:station:wmo:SIPF1:1,2015-11-01T20:15:00Z,27.8620,-80.4450,1.0,4.9,136.0,99.0,'11111222,11111222,11144222' 
FIT,ioos:station:wmo:SIPF1:1,2015-11-01T20:30:00Z,27.8620,-80.4450,1.0,4.8,136.0,99.0,'11111222,11111222,11144222' 
FIT,ioos:station:wmo:SIPF1:1,2015-11-01T20:45:00Z,27.8620,-80.4450,1.0,5.4,137.0,99.0,'11111222,11111222,11144222' 
FIT,ioos:station:wmo:SIPF1:1,2015-11-01T21:00:00Z,27.8620,-80.4450,1.0,5.2,141.0,99.0,'11111222,11111222,11144222' 
FIT,ioos:station:wmo:SIPF1:1,2015-11-01T21:15:00Z,27.8620,-80.4450,1.0,5.2,143.0,99.0,'11111222,11111222,11144222' 
FIT,ioos:station:wmo:SIPF1:1,2015-11-01T21:30:00Z,27.8620,-80.4450,1.0,5.0,142.0,99.0,'11111222,11111222,11144222' 
FIT,ioos:station:wmo:SIPF1:1,2015-11-01T21:45:00Z,27.8620,-80.4450,1.0,5.0,146.0,99.0,'11111222,11111222,11144222' 
FIT,ioos:station:wmo:SIPF1:1,2015-11-01T22:00:00Z,27.8620,-80.4450,1.0,4.8,147.0,99.0,'11111222,11111222,11144222' 
FIT,ioos:station:wmo:SIPF1:1,2015-11-01T22:15:00Z,27.8620,-80.4450,1.0,5.0,150.0,99.0,'11111222,11111222,11144222' 
FIT,ioos:station:wmo:SIPF1:1,2015-11-01T22:30:00Z,27.8620,-80.4450,1.0,5.6,154.0,99.0,'11111222,11111222,11144222' 
FIT,ioos:station:wmo:SIPF1:1,2015-11-01T22:45:00Z,27.8620,-80.4450,1.0,5.8,154.0,99.0,'11111222,11111222,11144222' 
FIT,ioos:station:wmo:SIPF1:1,2015-11-01T23:00:00Z,27.8620,-80.4450,1.0,5.7,153.0,99.0,'11111222,11111222,11144222' 
FIT,ioos:station:wmo:SIPF1:1,2015-11-01T23:15:00Z,27.8620,-80.4450,1.0,5.6,150.0,99.0,'11111222,11111222,11144222' 
FIT,ioos:station:wmo:SIPF1:1,2015-11-01T23:30:00Z,27.8620,-80.4450,1.0,5.4,154.0,99.0,'11111222,11111222,11144222' 
FIT,ioos:station:wmo:SIPF1:1,2015-11-01T23:45:00Z,27.8620,-80.4450,1.0,5.3,149.0,99.0,'11111222,11111222,11144222' 
FIT,ioos:station:wmo:SIPF1:1,2015-11-02T00:00:00Z,27.8620,-80.4450,1.0,4.8,150.0,99.0,'11111222,11111222,11144222' 
FIT,ioos:station:wmo:SIPF1:1,2015-11-02T00:15:00Z,27.8620,-80.4450,1.0,5.0,154.0,99.0,'11111222,11111222,11144222' 
FIT,ioos:station:wmo:SIPF1:1,2015-11-02T00:30:00Z,27.8620,-80.4450,1.0,5.5,152.0,99.0,'11111222,11111222,11144222' 
FIT,ioos:station:wmo:SIPF1:1,2015-11-02T00:45:00Z,27.8620,-80.4450,1.0,5.9,149.0,99.0,'11111222,11111222,11144222' 
FIT,ioos:station:wmo:SIPF1:1,2015-11-02T01:00:00Z,27.8620,-80.4450,1.0,5.9,149.0,99.0,'11111222,11111222,11144222' 
FIT,ioos:station:wmo:SIPF1:1,2015-11-02T01:15:00Z,27.8620,-80.4450,1.0,6.3,153.0,99.0,'11111222,11111222,11144222' 
FIT,ioos:station:wmo:SIPF1:1,2015-11-02T01:30:00Z,27.8620,-80.4450,1.0,6.2,151.0,99.0,'11111222,11111222,11144222' 
FIT,ioos:station:wmo:SIPF1:1,2015-11-02T01:45:00Z,27.8620,-80.4450,1.0,6.1,157.0,99.0,'11111222,11111222,11144222' 
FIT,ioos:station:wmo:SIPF1:1,2015-11-02T02:00:00Z,27.8620,-80.4450,1.0,5.5,158.0,99.0,'11111222,11111222,11144222' 
FIT,ioos:station:wmo:SIPF1:1,2015-11-02T02:15:00Z,27.8620,-80.4450,1.0,5.1,159.0,99.0,'11111222,11111222,11144222' 
FIT,ioos:station:wmo:SIPF1:1,2015-11-02T02:30:00Z,27.8620,-80.4450,1.0,4.0,167.0,99.0,'11111222,11111222,11144222' 
FIT,ioos:station:wmo:SIPF1:1,2015-11-02T02:45:00Z,27.8620,-80.4450,1.0,3.9,166.0,99.0,'11111222,11111222,11144222' 
FIT,ioos:station:wmo:SIPF1:1,2015-11-02T03:00:00Z,27.8620,-80.4450,1.0,3.4,170.0,99.0,'11111222,11111222,11144222' 
FIT,ioos:station:wmo:SIPF1:1,2015-11-02T03:15:00Z,27.8620,-80.4450,1.0,3.6,166.0,99.0,'11111222,11111222,11144222' 
FIT,ioos:station:wmo:SIPF1:1,2015-11-02T03:30:00Z,27.8620,-80.4450,1.0,3.6,171.0,99.0,'11111222,11111222,11144222' 
FIT,ioos:station:wmo:SIPF1:1,2015-11-02T03:45:00Z,27.8620,-80.4450,1.0,4.0,159.0,99.0,'11111222,11111222,11144222' 
FIT,ioos:station:wmo:SIPF1:1,2015-11-02T04:00:00Z,27.8620,-80.4450,1.0,4.3,157.0,99.0,'11111222,11111222,11144222' 
FIT,ioos:station:wmo:SIPF1:1,2015-11-02T04:15:00Z,27.8620,-80.4450,1.0,4.3,159.0,99.0,'11111222,11111222,11144222' 
FIT,ioos:station:wmo:SIPF1:1,2015-11-02T04:30:00Z,27.8620,-80.4450,1.0,3.6,163.0,99.0,'11111222,11111222,11144222' 
FIT,ioos:station:wmo:SIPF1:1,2015-11-02T04:45:00Z,27.8620,-80.4450,1.0,4.3,164.0,99.0,'11111222,11111222,11144222' 
FIT,ioos:station:wmo:SIPF1:1,2015-11-02T05:00:00Z,27.8620,-80.4450,1.0,4.4,170.0,99.0,'11111222,11111222,11144222' 
FIT,ioos:station:wmo:SIPF1:1,2015-11-02T05:15:00Z,27.8620,-80.4450,1.0,4.2,170.0,99.0,'11111222,11111222,11144222' 
FIT,ioos:station:wmo:SIPF1:1,2015-11-02T05:30:00Z,27.8620,-80.4450,1.0,4.1,173.0,99.0,'11111222,11111222,11144222' 
FIT,ioos:station:wmo:SIPF1:1,2015-11-02T05:45:00Z,27.8620,-80.4450,1.0,3.7,175.0,99.0,'11111222,11111222,11144222' 
FIT,ioos:station:wmo:SIPF1:1,2015-11-02T06:00:00Z,27.8620,-80.4450,1.0,3.1,176.0,99.0,'11111222,11111222,11144222' 
FIT,ioos:station:wmo:SIPF1:1,2015-11-02T06:15:00Z,27.8620,-80.4450,1.0,3.0,183.0,99.0,'11111222,11111222,11144222' 
FIT,ioos:station:wmo:SIPF1:1,2015-11-02T06:30:00Z,27.8620,-80.4450,1.0,2.2,195.0,99.0,'11111222,11111222,11144222' 
FIT,ioos:station:wmo:SIPF1:1,2015-11-02T06:45:00Z,27.8620,-80.4450,1.0,2.3,187.0,99.0,'11111222,11111222,11144222' 
FIT,ioos:station:wmo:SIPF1:1,2015-11-02T07:00:00Z,27.8620,-80.4450,1.0,2.6,194.0,99.0,'11111222,11111222,11144222' 
FIT,ioos:station:wmo:SIPF1:1,2015-11-02T07:15:00Z,27.8620,-80.4450,1.0,2.5,196.0,99.0,'11111222,11111222,11144222' 
FIT,ioos:station:wmo:SIPF1:1,2015-11-02T07:30:00Z,27.8620,-80.4450,1.0,2.4,199.0,99.0,'11111222,11111222,11144222' 
FIT,ioos:station:wmo:SIPF1:1,2015-11-02T07:45:00Z,27.8620,-80.4450,1.0,2.6,187.0,99.0,'11111222,11111222,11144222' 
FIT,ioos:station:wmo:SIPF1:1,2015-11-02T08:00:00Z,27.8620,-80.4450,1.0,2.8,180.0,99.0,'11111222,11111222,11144222' 
FIT,ioos:station:wmo:SIPF1:1,2015-11-02T08:15:00Z,27.8620,-80.4450,1.0,2.5,186.0,99.0,'11111222,11111222,11144222' 
FIT,ioos:station:wmo:SIPF1:1,2015-11-02T08:30:00Z,27.8620,-80.4450,1.0,2.1,188.0,99.0,'11111222,11111222,11144222' 
FIT,ioos:station:wmo:SIPF1:1,2015-11-02T08:45:00Z,27.8620,-80.4450,1.0,2.8,187.0,99.0,'11111222,11111222,11144222' 
FIT,ioos:station:wmo:SIPF1:1,2015-11-02T09:00:00Z,27.8620,-80.4450,1.0,3.2,188.0,99.0,'11111222,11111222,11144222' 
FIT,ioos:station:wmo:SIPF1:1,2015-11-02T09:15:00Z,27.8620,-80.4450,1.0,2.6,195.0,99.0,'11111222,11111222,11144222' 
FIT,ioos:station:wmo:SIPF1:1,2015-11-02T09:30:00Z,27.8620,-80.4450,1.0,1.8,207.0,99.0,'11111222,11111222,11144222' 
FIT,ioos:station:wmo:SIPF1:1,2015-11-02T09:45:00Z,27.8620,-80.4450,1.0,2.0,202.0,99.0,'11111222,11111222,11144222' 
FIT,ioos:station:wmo:SIPF1:1,2015-11-02T10:00:00Z,27.8620,-80.4450,1.0,2.0,213.0,99.0,'11111222,11111222,11144222' 
FIT,ioos:station:wmo:SIPF1:1,2015-11-02T10:15:00Z,27.8620,-80.4450,1.0,2.2,224.0,99.0,'11111222,11111222,11144222' 
FIT,ioos:station:wmo:SIPF1:1,2015-11-02T10:30:00Z,27.8620,-80.4450,1.0,1.9,221.0,99.0,'11111222,11111222,11144222' 
FIT,ioos:station:wmo:SIPF1:1,2015-11-02T10:45:00Z,27.8620,-80.4450,1.0,1.9,219.0,99.0,'11111222,11111222,11144222' 
FIT,ioos:station:wmo:SIPF1:1,2015-11-02T11:00:00Z,27.8620,-80.4450,1.0,2.2,214.0,99.0,'11111222,11111222,11144222' 
FIT,ioos:station:wmo:SIPF1:1,2015-11-02T11:15:00Z,27.8620,-80.4450,1.0,2.5,201.0,99.0,'11111222,11111222,11144222' 
FIT,ioos:station:wmo:SIPF1:1,2015-11-02T11:30:00Z,27.8620,-80.4450,1.0,2.6,206.0,99.0,'11111222,11111222,11144222' 
FIT,ioos:station:wmo:SIPF1:1,2015-11-02T11:45:00Z,27.8620,-80.4450,1.0,3.1,197.0,99.0,'11111222,11111222,11144222' 
FIT,ioos:station:wmo:SIPF1:1,2015-11-02T12:00:00Z,27.8620,-80.4450,1.0,3.5,200.0,99.0,'11111222,11111222,11144222' 
FIT,ioos:station:wmo:SIPF1:1,2015-11-02T12:15:00Z,27.8620,-80.4450,1.0,3.2,203.0,99.0,'11111222,11111222,11144222' 
FIT,ioos:station:wmo:SIPF1:1,2015-11-02T12:30:00Z,27.8620,-80.4450,1.0,2.4,222.0,99.0,'11111222,11111222,11144222' 
FIT,ioos:station:wmo:SIPF1:1,2015-11-02T12:45:00Z,27.8620,-80.4450,1.0,2.5,219.0,99.0,'11111222,11111222,11144222' 
FIT,ioos:station:wmo:SIPF1:1,2015-11-02T13:00:00Z,27.8620,-80.4450,1.0,2.8,210.0,99.0,'11111222,11111222,11144222' 
FIT,ioos:station:wmo:SIPF1:1,2015-11-02T13:15:00Z,27.8620,-80.4450,1.0,3.7,191.0,99.0,'11111222,11111222,11144222' 
FIT,ioos:station:wmo:SIPF1:1,2015-11-02T13:30:00Z,27.8620,-80.4450,1.0,3.7,191.0,99.0,'11111222,11111222,11144222' 
FIT,ioos:station:wmo:SIPF1:1,2015-11-02T13:45:00Z,27.8620,-80.4450,1.0,3.5,195.0,99.0,'11111222,11111222,11144222' 
FIT,ioos:station:wmo:SIPF1:1,2015-11-02T14:00:00Z,27.8620,-80.4450,1.0,2.8,201.0,99.0,'11111222,11111222,11144222' 
FIT,ioos:station:wmo:SIPF1:1,2015-11-02T14:15:00Z,27.8620,-80.4450,1.0,2.8,197.0,99.0,'11111222,11111222,11144222' 
FIT,ioos:station:wmo:SIPF1:1,2015-11-02T14:30:00Z,27.8620,-80.4450,1.0,3.5,184.0,99.0,'11111222,11111222,11144222' 
FIT,ioos:station:wmo:SIPF1:1,2015-11-02T14:45:00Z,27.8620,-80.4450,1.0,3.8,178.0,99.0,'11111222,11111222,11144222' 
FIT,ioos:station:wmo:SIPF1:1,2015-11-02T15:00:00Z,27.8620,-80.4450,1.0,4.1,183.0,99.0,'11111222,11111222,11144222' 
FIT,ioos:station:wmo:SIPF1:1,2015-11-02T15:15:00Z,27.8620,-80.4450,1.0,3.9,177.0,99.0,'11111222,11111222,11144222' 
FIT,ioos:station:wmo:SIPF1:1,2015-11-02T15:30:00Z,27.8620,-80.4450,1.0,4.2,170.0,99.0,'11111222,11111222,11144222' 
FIT,ioos:station:wmo:SIPF1:1,2015-11-02T15:45:00Z,27.8620,-80.4450,1.0,4.6,147.0,99.0,'11111222,11111222,11144222' 
FIT,ioos:station:wmo:SIPF1:1,2015-11-02T16:00:00Z,27.8620,-80.4450,1.0,4.8,142.0,99.0,'11111222,11111222,11144222' 
FIT,ioos:station:wmo:SIPF1:1,2015-11-02T16:15:00Z,27.8620,-80.4450,1.0,5.0,141.0,99.0,'11111222,11111222,11144222' 
FIT,ioos:station:wmo:SIPF1:1,2015-11-02T16:30:00Z,27.8620,-80.4450,1.0,5.5,139.0,99.0,'11111222,11111222,11144222' 
FIT,ioos:station:wmo:SIPF1:1,2015-11-02T16:45:00Z,27.8620,-80.4450,1.0,5.7,142.0,99.0,'11111222,11111222,11144222' 
FIT,ioos:station:wmo:SIPF1:1,2015-11-02T17:00:00Z,27.8620,-80.4450,1.0,5.3,139.0,99.0,'11111222,11111222,11144222' 
FIT,ioos:station:wmo:SIPF1:1,2015-11-02T17:15:00Z,27.8620,-80.4450,1.0,5.9,141.0,99.0,'11111222,11111222,11144222' 
FIT,ioos:station:wmo:SIPF1:1,2015-11-02T17:30:00Z,27.8620,-80.4450,1.0,5.9,140.0,99.0,'11111222,11111222,11144222' 
FIT,ioos:station:wmo:SIPF1:1,2015-11-02T17:45:00Z,27.8620,-80.4450,1.0,6.4,138.0,99.0,'11111222,11111222,11144222' 
FIT,ioos:station:wmo:SIPF1:1,2015-11-02T18:00:00Z,27.8620,-80.4450,1.0,6.3,137.0,99.0,'11111222,11111222,11144222' 
FIT,ioos:station:wmo:SIPF1:1,2015-11-02T18:15:00Z,27.8620,-80.4450,1.0,6.7,135.0,99.0,'11111222,11111222,11144222' 
FIT,ioos:station:wmo:SIPF1:1,2015-11-02T18:30:00Z,27.8620,-80.4450,1.0,6.9,136.0,99.0,'11111222,11111222,11144222' 
FIT,ioos:station:wmo:SIPF1:1,2015-11-02T18:45:00Z,27.8620,-80.4450,1.0,6.8,136.0,99.0,'11111222,11111222,11144222' 
FIT,ioos:station:wmo:SIPF1:1,2015-11-02T19:00:00Z,27.8620,-80.4450,1.0,6.5,136.0,99.0,'11111222,11111222,11144222' 
FIT,ioos:station:wmo:SIPF1:1,2015-11-02T19:15:00Z,27.8620,-80.4450,1.0,7.0,138.0,99.0,'11111222,11111222,11144222' 
FIT,ioos:station:wmo:SIPF1:1,2015-11-02T19:30:00Z,27.8620,-80.4450,1.0,6.9,138.0,99.0,'11111222,11111222,11144222' 
FIT,ioos:station:wmo:SIPF1:1,2015-11-02T19:45:00Z,27.8620,-80.4450,1.0,6.9,137.0,99.0,'11111222,11111222,11144222' 
FIT,ioos:station:wmo:SIPF1:1,2015-11-02T20:00:00Z,27.8620,-80.4450,1.0,6.2,141.0,99.0,'11111222,11111222,11144222' 
FIT,ioos:station:wmo:SIPF1:1,2015-11-02T20:15:00Z,27.8620,-80.4450,1.0,6.5,140.0,99.0,'11111222,11111222,11144222' 
FIT,ioos:station:wmo:SIPF1:1,2015-11-02T20:30:00Z,27.8620,-80.4450,1.0,6.6,139.0,99.0,'11111222,11111222,11144222' 
FIT,ioos:station:wmo:SIPF1:1,2015-11-02T20:45:00Z,27.8620,-80.4450,1.0,6.7,142.0,99.0,'11111222,11111222,11144222' 
FIT,ioos:station:wmo:SIPF1:1,2015-11-02T21:00:00Z,27.8620,-80.4450,1.0,6.4,141.0,99.0,'11111222,11111222,11144222' 
FIT,ioos:station:wmo:SIPF1:1,2015-11-02T21:15:00Z,27.8620,-80.4450,1.0,6.1,142.0,99.0,'11111222,11111222,11144222' 
FIT,ioos:station:wmo:SIPF1:1,2015-11-02T21:30:00Z,27.8620,-80.4450,1.0,6.0,143.0,99.0,'11111222,11111222,11144222' 
FIT,ioos:station:wmo:SIPF1:1,2015-11-02T21:45:00Z,27.8620,-80.4450,1.0,5.9,145.0,99.0,'11111222,11111222,11144222' 
FIT,ioos:station:wmo:SIPF1:1,2015-11-02T22:00:00Z,27.8620,-80.4450,1.0,5.6,148.0,99.0,'11111222,11111222,11144222' 
FIT,ioos:station:wmo:SIPF1:1,2015-11-02T22:15:00Z,27.8620,-80.4450,1.0,4.9,148.0,99.0,'11111222,11111222,11144222' 
FIT,ioos:station:wmo:SIPF1:1,2015-11-02T22:30:00Z,27.8620,-80.4450,1.0,4.5,151.0,99.0,'11111222,11111222,11144222' 
FIT,ioos:station:wmo:SIPF1:1,2015-11-02T22:45:00Z,27.8620,-80.4450,1.0,4.8,151.0,99.0,'11111222,11111222,11144222' 
FIT,ioos:station:wmo:SIPF1:1,2015-11-02T23:00:00Z,27.8620,-80.4450,1.0,4.8,154.0,99.0,'11111222,11111222,11144222' 
FIT,ioos:station:wmo:SIPF1:1,2015-11-02T23:15:00Z,27.8620,-80.4450,1.0,4.3,151.0,99.0,'11111222,11111222,11144222' 
FIT,ioos:station:wmo:SIPF1:1,2015-11-02T23:30:00Z,27.8620,-80.4450,1.0,3.6,156.0,99.0,'11111222,11111222,11144222' 
FIT,ioos:station:wmo:SIPF1:1,2015-11-02T23:45:00Z,27.8620,-80.4450,1.0,3.8,148.0,99.0,'11111222,11111222,11144222' 
FIT,ioos:station:wmo:SIPF1:1,2015-11-03T00:00:00Z,27.8620,-80.4450,1.0,4.3,149.0,99.0,'11111222,11111222,11144222' 
FIT,ioos:station:wmo:SIPF1:1,2015-11-03T00:15:00Z,27.8620,-80.4450,1.0,4.1,143.0,99.0,'11111222,11111222,11144222' 
FIT,ioos:station:wmo:SIPF1:1,2015-11-03T00:30:00Z,27.8620,-80.4450,1.0,4.3,145.0,99.0,'11111222,11111222,11144222' 
FIT,ioos:station:wmo:SIPF1:1,2015-11-03T00:45:00Z,27.8620,-80.4450,1.0,4.7,137.0,99.0,'11111222,11111222,11144222' 
FIT,ioos:station:wmo:SIPF1:1,2015-11-03T01:00:00Z,27.8620,-80.4450,1.0,6.0,134.0,99.0,'11111222,11111222,11144222' 
FIT,ioos:station:wmo:SIPF1:1,2015-11-03T01:15:00Z,27.8620,-80.4450,1.0,6.0,133.0,99.0,'11111222,11111222,11144222' 
FIT,ioos:station:wmo:SIPF1:1,2015-11-03T01:30:00Z,27.8620,-80.4450,1.0,7.0,134.0,99.0,'11111222,11111222,11144222' 
FIT,ioos:station:wmo:SIPF1:1,2015-11-03T01:45:00Z,27.8620,-80.4450,1.0,6.9,135.0,99.0,'11111222,11111222,11144222' 
FIT,ioos:station:wmo:SIPF1:1,2015-11-03T02:00:00Z,27.8620,-80.4450,1.0,7.2,136.0,99.0,'11111222,11111222,11144222' 
FIT,ioos:station:wmo:SIPF1:1,2015-11-03T02:15:00Z,27.8620,-80.4450,1.0,7.0,137.0,99.0,'11111222,11111222,11144222' 
FIT,ioos:station:wmo:SIPF1:1,2015-11-03T02:30:00Z,27.8620,-80.4450,1.0,7.3,139.0,99.0,'11111222,11111222,11144222' 
FIT,ioos:station:wmo:SIPF1:1,2015-11-03T02:45:00Z,27.8620,-80.4450,1.0,7.2,141.0,99.0,'11111222,11111222,11144222' 
FIT,ioos:station:wmo:SIPF1:1,2015-11-03T03:00:00Z,27.8620,-80.4450,1.0,7.5,141.0,99.0,'11111222,11111222,11144222' 
FIT,ioos:station:wmo:SIPF1:1,2015-11-03T03:15:00Z,27.8620,-80.4450,1.0,7.5,142.0,99.0,'11111222,11111222,11144222' 